Dewpoint
40 38 36 36 37 35 32 31 29 32 33 31 30 30 30 31 31 31 29 34 40 43 45 52 56 59 60 62 63 64 64 65 65 64 64 63 63 64 63 65 65 65 64 65
38 37 36 38 38 37 35 33 32 33 32 32 31 30 31 32 32 32 31 32 39 43 46 52 54 55 58 61 63 63 62 62 61 60 59 60 58 56 55 54 55 55 54 55
29 29 37 37 37 37 36 34 33 31 33 33 31 28 27 29 31 31 29 31 38 41 45 51 51 54 56 58 58 56 53 53 54 53 51 49 47 48 48 49 51 51 51 51
28 29 33 35 35 35 31 36 36 35 33 29 28 17 19 27 29 30 31 32 36 41 45 47 45 46 48 48 48 47 47 46 46 45 44 44 42 42 47 49 47 43 43 42
25 28 30 32 34 36 31 32 35 36 34 33 30 27 22 26 26 28 31 34 36 40 43 43 42 42 43 46 48 48 46 45 45 45 45 44 44 45 43 41 40 41 42 41
26 28 30 30 32 35 34 33 33 35 33 28 26 25 18 20 25 27 29 34 36 39 43 43 42 42 41 43 45 44 41 42 43 41 40 39 37 38 37 38 39 39 40 41
29 29 31 32 30 35 35 32 28 28 29 24 24 26 21 24 26 28 29 32 37 39 42 42 41 40 40 41 40 41 39 36 37 36 35 36 37 38 37 38 39 39 39 39
28 24 29 32 29 29 35 31 22 17 16 19 28 23 21 29 29 30 32 33 36 38 41 40 40 40 39 39 38 35 34 33 32 32 34 37 37 37 38 39 39 38 38 37
28 26 30 28 32 29 30 31 28 25 32 25 21 24 27 24 26 27 30 34 34 36 37 39 39 38 38 38 38 34 32 32 30 31 35 36 37 38 38 39 40 39 39 38
28 26 28 30 32 32 32 33 29 27 21 19 18 23 21 24 27 28 30 31 32 33 35 37 36 36 37 36 33 34 32 29 29 32 34 35 37 39 40 40 39 39 39 39
34 29 27 30 30 31 31 31 31 29 28 19 15 18 25 28 27 28 30 31 30 30 33 35 33 33 35 32 31 32 30 28 30 32 35 37 38 40 39 39 38 39 39 38
32 33 28 28 29 32 32 30 32 28 26 28 25 21 29 32 30 30 30 30 27 28 31 32 30 32 32 30 29 30 29 29 31 33 36 39 39 38 37 37 38 38 37 37
31 32 30 29 30 34 31 31 32 32 30 28 24 21 25 29 29 29 28 25 23 25 29 29 29 32 30 28 29 27 28 30 32 35 38 38 37 37 36 36 36 36 36 35
32 30 30 25 26 30 33 33 34 33 30 27 29 25 23 25 26 24 22 21 21 25 26 26 28 30 27 27 26 27 29 31 33 38 37 36 36 36 36 35 35 34 34 34
32 28 29 30 28 28 30 31 32 32 34 31 29 27 29 25 23 21 19 18 20 24 23 25 28 28 25 24 25 27 29 32 38 36 36 35 35 35 35 34 33 33 32 32
33 31 30 28 30 29 26 28 28 30 33 33 32 30 31 28 24 20 17 17 19 21 22 25 27 25 23 23 25 27 29 37 36 35 35 34 34 33 33 32 32 32 31 33
32 33 32 28 32 33 29 30 31 31 31 32 31 32 32 26 21 19 18 16 17 19 21 24 24 22 22 24 26 27 35 36 34 34 34 33 33 32 32 31 30 31 32 32
30 35 34 31 32 24 32 35 33 31 31 31 32 33 34 31 22 21 19 17 17 18 20 23 23 22 24 26 29 35 34 33 33 33 32 32 33 32 31 31 31 31 32 31
36 36 31 29 29 32 34 35 34 32 31 31 32 33 33 26 21 20 21 18 18 19 21 23 23 23 25 29 35 34 32 32 32 32 32 32 32 32 31 30 30 31 31 31
38 37 33 29 28 25 28 32 35 35 31 33 32 32 31 24 28 29 26 22 22 25 23 23 23 24 28 34 34 33 32 32 32 32 32 32 32 31 30 31 30 31 31 30
33 34 31 29 27 30 33 24 37 31 31 36 36 34 33 34 37 38 33 28 26 25 24 24 24 26 32 34 33 33 32 32 32 31 32 32 30 30 30 31 31 31 31 31
30 29 30 31 28 24 32 32 31 34 28 33 37 37 36 38 37 36 31 24 24 23 24 25 28 30 34 33 33 32 31 31 30 31 31 31 30 30 31 31 31 31 31 30
29 32 31 32 30 30 30 32 33 29 29 31 33 33 37 33 30 30 27 25 23 21 23 28 32 33 33 33 33 32 31 31 30 30 30 30 30 30 30 30 30 31 31 30
29 30 29 28 29 27 30 25 23 20 23 28 30 32 33 30 28 27 25 23 23 26 29 30 32 33 31 33 32 32 31 31 30 30 30 30 29 30 31 31 30 30 30 30
31 30 30 30 32 24 24 24 23 20 22 25 25 26 28 28 26 24 23 25 27 27 29 31 32 32 31 32 31 30 30 29 29 30 29 29 30 30 31 31 30 30 30 30
32 32 32 32 33 30 27 24 22 20 22 23 23 23 25 26 24 23 21 22 24 28 31 32 32 32 31 31 31 31 31 30 29 29 29 31 30 29 31 31 30 31 31 31
Wind_Speed
9 13 30 31 26 19 13 23 22 11 9 7 15 20 21 21 15 17 12 12 10 10 3 2 3 4 8 12 14 13 15 16 16 14 12 11 9 8 7 5 5 4 3 2
11 34 32 18 16 20 22 25 24 10 12 7 15 28 22 21 25 22 22 18 16 12 9 6 7 7 9 13 16 15 16 16 15 13 9 7 8 7 8 7 9 9 8 6
38 41 22 25 22 26 29 32 25 18 5 13 12 40 29 26 22 20 18 16 17 18 17 13 13 13 13 15 18 18 18 18 16 15 13 11 8 6 6 7 5 6 6 5
22 34 19 28 34 27 34 23 19 18 10 20 4 37 23 9 17 15 21 18 19 21 16 17 17 16 15 14 16 19 19 19 14 12 13 12 8 6 3 2 2 4 5 8
31 25 32 22 34 26 28 17 21 18 20 17 32 18 19 17 28 25 24 22 21 23 24 21 18 16 14 13 16 16 17 16 14 14 13 11 10 7 4 1 4 6 7 8
38 18 23 41 29 27 14 4 7 7 12 19 34 22 46 28 26 17 20 19 20 23 24 22 19 17 14 11 14 16 17 14 13 15 13 12 8 5 2 1 4 6 8 10
31 31 15 17 25 22 27 19 11 11 13 24 12 21 49 4 17 27 27 22 21 24 28 27 24 21 19 18 17 16 18 16 13 13 10 7 5 3 1 3 5 8 10 12
30 23 34 25 35 29 34 30 17 23 24 29 11 22 31 6 12 16 12 16 21 26 27 27 25 22 21 20 18 18 17 16 12 9 7 5 3 1 2 4 7 10 13 15
29 29 14 33 21 29 28 31 43 13 3 10 20 32 22 10 11 12 14 18 25 29 29 29 25 23 22 19 18 17 17 14 9 6 4 3 1 2 6 9 11 13 15 15
22 25 26 25 29 24 21 39 21 25 26 33 25 30 33 16 25 22 21 23 24 27 28 28 26 24 21 18 16 14 13 12 8 5 2 1 4 5 8 11 15 16 16 17
37 21 13 26 24 39 29 32 20 18 17 25 38 32 19 26 29 30 29 25 27 30 30 28 25 21 19 17 16 15 12 10 7 4 0 3 5 8 11 13 15 15 17 18
48 20 35 29 32 39 40 34 35 21 29 28 26 44 7 16 27 26 21 23 26 28 29 29 24 21 20 18 16 14 10 7 5 2 1 4 7 11 13 14 15 15 17 17
34 26 23 37 19 5 40 38 37 40 8 35 27 48 11 4 12 17 23 24 26 27 28 27 23 22 20 18 15 12 8 6 4 1 3 7 10 10 12 13 14 16 18 19
27 35 46 42 50 32 28 43 42 41 33 36 35 52 15 11 15 14 16 21 26 28 28 25 23 22 20 16 13 10 7 4 3 1 4 8 10 11 12 14 15 16 17 19
41 43 42 51 40 25 35 38 44 44 41 38 48 39 33 22 20 23 22 23 26 28 28 26 25 21 19 16 12 9 6 5 2 2 5 8 9 10 12 14 15 15 15 17
25 23 40 42 37 38 32 32 41 44 46 41 47 38 24 19 24 21 25 29 33 31 27 22 21 21 19 16 13 9 7 5 1 3 6 6 8 11 12 14 15 14 15 15
30 25 23 43 41 33 41 53 43 37 40 40 47 61 19 14 22 27 29 30 32 29 27 24 21 21 17 16 13 10 8 4 1 4 4 4 9 10 12 14 14 15 15 14
36 37 21 19 20 35 39 28 46 38 30 38 44 37 25 26 31 30 30 34 30 30 27 25 23 18 15 12 11 10 6 3 2 4 5 7 8 9 10 11 12 12 12 12
42 32 13 16 19 2 16 18 40 36 53 42 31 27 16 13 14 17 24 29 32 31 28 28 23 19 15 14 12 9 6 4 3 3 6 7 9 10 11 11 13 12 10 11
33 35 27 9 13 14 7 10 23 28 46 37 39 34 20 27 22 22 23 21 22 28 28 28 23 18 17 14 13 11 7 4 1 4 6 8 8 9 11 11 12 9 9 9
20 22 35 20 6 7 11 12 22 17 12 24 28 33 23 22 30 20 29 25 31 31 25 22 23 21 19 16 13 10 5 1 2 3 5 6 7 9 8 9 9 8 9 9
11 8 10 10 8 18 17 19 26 14 6 9 23 30 34 41 15 16 29 32 32 32 30 26 22 19 16 14 12 9 4 3 2 3 3 5 6 6 7 8 7 8 8 7
8 8 3 10 12 3 29 5 8 8 12 9 13 9 10 15 11 23 28 29 29 33 28 22 20 21 14 12 11 9 6 4 2 2 2 3 4 5 5 5 8 7 6 5
6 2 5 7 11 8 18 3 5 5 6 7 9 12 20 20 24 22 26 27 27 24 25 21 21 19 16 11 9 8 5 3 1 2 2 2 3 4 4 5 6 5 5 4
2 4 2 8 7 3 2 4 6 4 6 10 11 14 19 26 24 27 26 24 23 22 21 21 19 17 15 12 9 7 6 3 2 2 1 2 1 3 4 5 5 2 4 3
11 8 10 9 11 6 7 16 9 8 8 13 20 17 15 26 24 25 25 23 23 22 20 17 16 17 16 13 11 9 7 6 3 2 0 2 2 3 2 2 3 10 9 9
Wind_Direction
177 208 219 214 214 233 235 231 241 235 241 264 252 257 253 264 270 273 263 240 216 214 194 127 113 136 128 131 142 145 144 148 148 145 142 138 135 128 116 97 88 76 54 32
195 223 224 223 204 219 230 240 241 269 242 262 272 269 265 259 261 261 259 223 210 197 182 160 146 157 159 143 139 135 133 134 134 131 125 116 132 114 102 85 72 65 55 41
204 227 212 209 207 213 227 229 235 241 296 273 295 282 266 258 246 235 229 223 205 199 180 162 151 143 141 138 136 132 128 123 115 113 114 112 109 96 75 50 53 29 19 9
224 236 227 208 218 209 235 223 235 231 247 254 206 272 268 262 241 233 231 211 204 188 176 164 152 141 133 125 123 123 120 114 110 111 99 96 97 101 73 67 358 335 344 335
222 221 218 218 220 207 237 213 221 221 232 262 251 271 262 244 242 236 228 214 205 189 177 167 156 146 135 135 128 120 111 103 101 101 106 107 105 102 111 347 325 326 322 317
233 219 216 222 223 211 212 236 199 206 214 243 247 230 269 236 236 239 227 212 199 184 174 167 163 154 145 144 135 127 118 110 109 104 100 106 121 144 173 267 300 307 307 304
232 235 229 213 216 202 197 188 194 211 202 242 185 214 249 254 227 227 219 206 186 182 176 171 170 165 154 153 146 135 127 121 117 114 115 123 135 155 227 290 290 292 293 290
219 229 211 210 212 201 199 195 204 222 230 251 184 233 245 237 221 206 214 199 175 177 178 175 170 165 161 158 155 142 136 133 131 128 135 144 146 164 263 282 295 296 295 294
212 233 203 202 206 195 202 205 222 253 254 254 225 251 270 225 216 207 201 175 183 181 178 174 171 169 165 164 159 148 142 138 135 128 138 177 198 311 306 304 302 301 299 301
212 236 211 194 198 213 201 203 203 220 227 235 243 247 242 202 210 203 204 202 187 178 175 174 173 172 168 160 153 149 142 142 140 142 175 343 331 308 302 298 298 304 304 303
226 236 209 177 191 197 203 203 210 211 218 223 244 248 241 216 205 204 208 194 179 179 175 172 172 171 164 157 157 152 150 148 149 153 96 315 312 313 310 308 310 310 308 311
219 229 236 215 212 203 202 202 204 208 209 228 247 259 187 212 205 204 198 189 184 179 173 171 169 165 162 166 164 165 158 153 152 149 283 313 320 320 319 316 310 310 306 304
212 220 237 232 244 242 218 214 207 213 219 217 214 249 228 194 199 200 189 181 177 172 170 170 170 168 169 172 169 166 166 164 167 156 342 329 320 313 308 305 305 311 310 307
208 221 217 221 217 206 212 217 219 214 219 226 220 247 221 201 209 198 188 177 176 174 171 172 171 173 172 171 171 165 167 175 158 19 331 311 308 313 310 314 318 312 311 310
206 221 220 233 238 203 213 215 218 220 220 222 234 238 242 208 197 200 183 174 174 173 176 179 173 173 170 169 168 169 164 163 132 319 312 307 314 316 323 317 313 307 308 307
200 224 226 238 234 233 235 229 226 226 229 228 239 246 256 200 198 180 180 180 182 179 178 175 170 169 172 173 174 171 166 154 161 287 305 314 327 318 311 312 314 318 313 310
275 210 202 228 225 224 233 233 234 242 239 234 236 238 234 218 188 185 189 188 181 174 171 170 175 173 175 177 172 169 161 150 198 297 300 315 303 303 314 322 322 321 315 317
252 209 202 230 203 225 239 232 224 232 244 238 246 245 232 220 198 195 190 178 176 171 171 168 173 177 175 161 152 137 146 158 245 277 292 309 319 310 315 316 313 310 309 323
237 205 199 206 206 247 233 209 204 208 237 236 242 242 230 158 152 206 190 185 178 173 171 162 173 172 157 159 144 152 166 183 222 286 322 327 316 321 320 320 317 316 322 331
229 201 197 172 220 230 258 187 199 206 243 234 231 235 167 148 199 212 190 184 169 167 171 162 158 155 147 160 158 166 175 178 295 337 321 313 331 324 317 316 313 309 322 330
199 196 197 191 178 244 235 156 133 169 243 215 215 228 162 190 215 206 175 182 174 159 151 149 148 155 165 163 162 164 152 105 357 302 302 327 327 315 313 308 303 326 337 336
198 174 195 184 186 241 172 162 171 181 181 202 192 203 204 212 208 203 174 166 157 154 151 150 150 152 163 162 160 146 136 137 227 258 315 315 307 313 312 310 326 341 337 340
232 203 214 193 215 239 177 201 180 146 173 201 203 192 163 147 147 155 158 152 152 148 146 150 158 162 154 155 147 149 165 160 210 300 289 299 321 336 331 338 352 337 349 357
220 181 233 203 198 186 186 63 130 147 189 221 165 143 143 145 142 143 142 141 146 145 149 162 156 158 159 148 141 142 147 147 209 247 273 332 343 356 359 26 347 337 11 16
172 153 204 273 289 348 258 189 178 148 144 128 114 130 137 134 141 142 141 143 146 153 153 156 162 159 154 151 152 143 137 156 190 212 271 360 16 0 16 45 358 18 39 38
177 178 195 228 256 223 226 176 158 144 132 143 130 116 133 141 142 140 143 150 149 150 152 150 146 142 146 146 154 161 160 170 145 151 15 359 17 13 15 117 114 63 73 57